KLM44P EDDF-EHAM

Flight info

Callsign KLM44P
Flight time N/A
Altitude 24000
Route MARUN8M/25C MARUN Y152 ARPEG Z850 ABILU DCT NORKU
Aircraft A321/M-SDE3FGHIRWY/LB1

Departure

Time 2026-05-07 14:18
Airport Frankfurt Main Airport (EDDF)

Arrival

Time N/A
Airport Amsterdam Airport Schiphol (EHAM)
Time Latitude Longitude Altitude Speed Heading
2026-05-07 13:56 50.04456 8.56429 355 ft 0 kts 155°
2026-05-07 14:05 50.04460 8.56426 356 ft 3 kts 155°
2026-05-07 14:05 50.04484 8.56408 358 ft 4 kts 155°
2026-05-07 14:06 50.04506 8.56392 356 ft 4 kts 176°
2026-05-07 14:06 50.04520 8.56401 356 ft 4 kts 248°
2026-05-07 14:06 50.04526 8.56426 356 ft 2 kts 250°
2026-05-07 14:06 50.04522 8.56411 355 ft 4 kts 250°
2026-05-07 14:07 50.04515 8.56380 356 ft 0 kts 250°
2026-05-07 14:09 50.04514 8.56380 347 ft 0 kts 250°
2026-05-07 14:09 50.04505 8.56339 349 ft 8 kts 250°
2026-05-07 14:09 50.04481 8.56235 355 ft 11 kts 250°
2026-05-07 14:09 50.04456 8.56128 356 ft 10 kts 250°
2026-05-07 14:10 50.04422 8.56038 349 ft 9 kts 215°
2026-05-07 14:10 50.04364 8.56042 353 ft 8 kts 159°
2026-05-07 14:10 50.04313 8.56073 355 ft 7 kts 153°
2026-05-07 14:10 50.04291 8.56131 352 ft 6 kts 92°
2026-05-07 14:11 50.04290 8.56187 347 ft 5 kts 100°
2026-05-07 14:11 50.04275 8.56221 356 ft 4 kts 147°
2026-05-07 14:11 50.04215 8.56252 356 ft 14 kts 161°
2026-05-07 14:11 50.04149 8.56301 355 ft 3 kts 108°
2026-05-07 14:12 50.04145 8.56352 355 ft 8 kts 84°
2026-05-07 14:12 50.04174 8.56479 353 ft 15 kts 69°
2026-05-07 14:12 50.04189 8.56538 350 ft 0 kts 69°
2026-05-07 14:12 50.04189 8.56540 356 ft 2 kts 69°
2026-05-07 14:13 50.04206 8.56608 350 ft 11 kts 70°
2026-05-07 14:13 50.04230 8.56711 351 ft 9 kts 70°
2026-05-07 14:13 50.04255 8.56818 353 ft 14 kts 70°
2026-05-07 14:13 50.04280 8.56923 349 ft 21 kts 70°
2026-05-07 14:14 50.04321 8.57094 354 ft 11 kts 69°
2026-05-07 14:14 50.04332 8.57141 354 ft 4 kts 69°
2026-05-07 14:14 50.04362 8.57261 354 ft 20 kts 69°
2026-05-07 14:15 50.04413 8.57470 352 ft 20 kts 69°
2026-05-07 14:15 50.04461 8.57673 355 ft 19 kts 70°
2026-05-07 14:15 50.04506 8.57867 350 ft 19 kts 69°
2026-05-07 14:15 50.04550 8.58050 351 ft 18 kts 69°
2026-05-07 14:16 50.04592 8.58224 354 ft 17 kts 69°
2026-05-07 14:16 50.04631 8.58387 352 ft 16 kts 70°
2026-05-07 14:16 50.04655 8.58520 351 ft 10 kts 98°
2026-05-07 14:16 50.04609 8.58580 349 ft 9 kts 160°
2026-05-07 14:17 50.04556 8.58610 352 ft 8 kts 160°
2026-05-07 14:17 50.04508 8.58636 353 ft 6 kts 167°
2026-05-07 14:17 50.04483 8.58592 352 ft 9 kts 251°
2026-05-07 14:17 50.04403 8.58231 352 ft 70 kts 250°
2026-05-07 14:18 50.04160 8.57211 355 ft 128 kts 250°
2026-05-07 14:18 50.03794 8.55692 386 ft 166 kts 249°
2026-05-07 14:18 50.03397 8.54012 1014 ft 165 kts 250°
2026-05-07 14:18 50.02998 8.52333 1675 ft 166 kts 252°
2026-05-07 14:19 50.02555 8.50654 2209 ft 174 kts 241°
2026-05-07 14:19 50.01616 8.49308 2419 ft 198 kts 207°
2026-05-07 14:19 50.00238 8.48693 2699 ft 211 kts 195°
2026-05-07 14:19 49.98795 8.48140 3281 ft 215 kts 195°
2026-05-07 14:20 49.97347 8.47573 4065 ft 215 kts 196°
2026-05-07 14:20 49.95892 8.46996 4850 ft 217 kts 197°
2026-05-07 14:20 49.94374 8.46333 5238 ft 239 kts 198°
2026-05-07 14:20 49.92744 8.45578 5865 ft 248 kts 198°
2026-05-07 14:21 49.91209 8.44377 6610 ft 250 kts 224°
2026-05-07 14:21 49.90269 8.42154 7353 ft 249 kts 255°
2026-05-07 14:21 49.90201 8.39496 8115 ft 250 kts 285°
2026-05-07 14:21 49.91026 8.37141 8871 ft 253 kts 315°
2026-05-07 14:22 49.92534 8.35680 9470 ft 266 kts 335°
2026-05-07 14:22 49.94288 8.34517 9961 ft 280 kts 336°
2026-05-07 14:22 49.96127 8.33333 10368 ft 296 kts 336°
2026-05-07 14:22 49.98105 8.32061 10559 ft 319 kts 336°
2026-05-07 14:23 50.00230 8.30685 10713 ft 342 kts 336°
2026-05-07 14:23 50.02545 8.29490 11058 ft 357 kts 347°
2026-05-07 14:23 50.05033 8.29034 11689 ft 364 kts 358°